Weather History for Tehachapi, CA

Change the Weather History Date:

Tuesday, December 4, 2012

  Actual Average Record
Temperature  
Mean Temperature 46 °F -  
Max Temperature 60 °F 55 °F 60 °F (2012)
Min Temperature 32 °F 32 °F 14 °F (2011)
Degree Days  
Heating Degree Days 19    
Moisture  
Dew Point 31 °F    
Average Humidity 59    
Maximum Humidity 87    
Minimum Humidity 36    
Precipitation  
Precipitation 0.00 in - - ()
Sea Level Pressure  
Sea Level Pressure 30.27 in    
Wind  
Wind Speed 5 mph (ESE)    
Max Wind Speed 13 mph    
Max Gust Speed -    
Visibility 10 miles    
Events      
Averages and records for this station are not official NWS values.
T = Trace of Precipitation, MM = Missing Value Source: NWS Daily Summary

Daily Weather History Graph

Daily Weather History Graph

Search for Another Location

Airport:

Trip Planner

Search our weather history database for the weather conditions in past years. The results will help you decide how hot, cold, wet, or windy it might be!

Date:

Astronomy

Dec. 04, 2012 Rise Set
Actual Time 6:46 AM PST 4:41 PM PST
Civil Twilight 6:18 AM PST 5:09 PM PST
Nautical Twilight 5:47 AM PST 5:40 PM PST
Astronomical Twilight 5:16 AM PST 6:11 PM PST
Moon 10:25 PM PST (12/4) 10:51 AM PST (12/4)
Length of Visible Light 10h 50m
Length of Day
9h 54m
Waning Gibbous, 68% of the Moon is Illuminated
Dec 4
Waning Gibbous
Dec 6
Last Quarter
Dec 13
New
Dec 19
First Quarter
Dec 28
Full

Hourly Weather History & Observations

Time (PST) Temp. Windchill Dew Point Humidity Pressure Visibility Wind Dir Wind Speed Gust Speed Precip Events Conditions
12:15 AM 37.4 °F 34.9 °F 23.0 °F 56% 30.24 in 10.0 mi ESE 3.5 mph - N/A   Clear
12:35 AM 35.6 °F 29.2 °F 23.0 °F 60% 30.23 in 10.0 mi ESE 8.1 mph - N/A   Clear
12:55 AM 35.6 °F 30.7 °F 21.2 °F 56% 30.23 in 10.0 mi ESE 5.8 mph - N/A   Clear
1:15 AM 35.6 °F - 23.0 °F 60% 30.23 in 10.0 mi Calm Calm - N/A   Clear
1:35 AM 37.4 °F 34.9 °F 21.2 °F 52% 30.23 in 10.0 mi ESE 3.5 mph - N/A   Clear
1:55 AM 35.6 °F - 23.0 °F 60% 30.23 in 10.0 mi Calm Calm - N/A   Clear
2:15 AM 37.4 °F 32.8 °F 21.2 °F 52% 30.23 in 10.0 mi ESE 5.8 mph - N/A   Clear
2:35 AM 37.4 °F 31.4 °F 21.2 °F 52% 30.24 in 10.0 mi SE 8.1 mph - N/A   Clear
2:55 AM 35.6 °F 32.8 °F 23.0 °F 60% 30.24 in 10.0 mi SSE 3.5 mph - N/A   Clear
3:15 AM 33.8 °F - 23.0 °F 65% 30.26 in 10.0 mi Calm Calm - N/A   Clear
3:35 AM 32.0 °F - 23.0 °F 69% 30.26 in 10.0 mi Calm Calm - N/A   Clear
3:55 AM 35.6 °F 31.7 °F 21.2 °F 56% 30.26 in 10.0 mi ESE 4.6 mph - N/A   Clear
4:15 AM 35.6 °F 28.0 °F 23.0 °F 60% 30.25 in 10.0 mi SE 10.4 mph - N/A   Clear
4:35 AM 37.4 °F 30.3 °F 21.2 °F 52% 30.25 in 10.0 mi SE 10.4 mph - N/A   Clear
4:55 AM 37.4 °F 29.3 °F 21.2 °F 52% 30.25 in 10.0 mi SE 12.7 mph - N/A   Clear
5:15 AM 37.4 °F 30.3 °F 23.0 °F 56% 30.25 in 10.0 mi SE 10.4 mph - N/A   Clear
5:35 AM 37.4 °F 30.8 °F 23.0 °F 56% 30.26 in 10.0 mi ESE 9.2 mph - N/A   Clear
5:55 AM 35.6 °F 29.9 °F 23.0 °F 60% 30.27 in 10.0 mi SE 6.9 mph - N/A   Clear
6:15 AM 35.6 °F 28.6 °F 24.8 °F 65% 30.27 in 10.0 mi SE 9.2 mph - N/A   Clear
6:35 AM 37.4 °F 29.8 °F 23.0 °F 56% 30.26 in 10.0 mi SE 11.5 mph - N/A   Clear
6:55 AM 35.6 °F 32.8 °F 23.0 °F 60% 30.28 in 10.0 mi SE 3.5 mph - N/A   Clear
7:15 AM 37.4 °F 33.8 °F 23.0 °F 56% 30.29 in 10.0 mi ESE 4.6 mph - N/A   Clear
7:35 AM 37.4 °F - 24.8 °F 60% 30.29 in 10.0 mi Calm Calm - N/A   Clear
7:55 AM 39.2 °F 37.0 °F 26.6 °F 61% 30.30 in 10.0 mi East 3.5 mph - N/A   Clear
8:15 AM 46.4 °F 43.5 °F 32.0 °F 57% 30.30 in 10.0 mi ESE 5.8 mph - N/A   Clear
8:35 AM 48.2 °F - 32.0 °F 54% 30.32 in 10.0 mi SE 5.8 mph - N/A   Clear
8:55 AM 50.0 °F - 35.6 °F 58% 30.32 in 10.0 mi ESE 6.9 mph - N/A   Clear
9:15 AM 53.6 °F - 37.4 °F 54% 30.32 in 10.0 mi ESE 10.4 mph - N/A   Clear
9:35 AM 55.4 °F - 39.2 °F 54% 30.32 in 10.0 mi ESE 10.4 mph - N/A   Clear
9:55 AM 55.4 °F - 39.2 °F 54% 30.32 in 10.0 mi ESE 9.2 mph - N/A   Clear
10:15 AM 57.2 °F - 39.2 °F 51% 30.32 in 9.0 mi ESE 10.4 mph - N/A   Clear
10:35 AM 59.0 °F - 37.4 °F 45% 30.31 in 10.0 mi East 8.1 mph - N/A   Clear
10:55 AM 59.0 °F - 37.4 °F 45% 30.31 in 10.0 mi ESE 10.4 mph - N/A   Clear
11:15 AM 59.0 °F - 37.4 °F 45% 30.31 in 10.0 mi East 8.1 mph - N/A   Clear
11:35 AM 59.0 °F - 37.4 °F 45% 30.30 in 10.0 mi ESE 12.7 mph - N/A   Clear
11:55 AM 59.0 °F - 37.4 °F 45% 30.29 in 10.0 mi ESE 11.5 mph - N/A   Clear
12:15 PM 59.0 °F - 37.4 °F 45% 30.29 in 10.0 mi ESE 10.4 mph - N/A   Clear
12:35 PM 60.8 °F - 37.4 °F 42% 30.28 in 10.0 mi East 11.5 mph - N/A   Clear
12:55 PM 59.0 °F - 35.6 °F 42% 30.27 in 10.0 mi ESE 8.1 mph - N/A   Clear
1:15 PM 60.8 °F - 35.6 °F 39% 30.26 in 10.0 mi East 9.2 mph - N/A   Clear
1:35 PM 60.8 °F - 35.6 °F 39% 30.26 in 10.0 mi ESE 8.1 mph - N/A   Clear
1:55 PM 60.8 °F - 33.8 °F 36% 30.25 in 10.0 mi ESE 8.1 mph - N/A   Clear
2:15 PM 60.8 °F - 33.8 °F 36% 30.25 in 10.0 mi ESE 8.1 mph - N/A   Clear
2:35 PM 60.8 °F - 35.6 °F 39% 30.25 in 10.0 mi East 9.2 mph - N/A   Clear
2:55 PM 60.8 °F - 33.8 °F 36% 30.26 in 10.0 mi ESE 8.1 mph - N/A   Clear
3:15 PM 59.0 °F - 35.6 °F 42% 30.26 in 10.0 mi East 6.9 mph - N/A   Clear
3:35 PM 59.0 °F - 35.6 °F 42% 30.26 in 10.0 mi ESE 5.8 mph - N/A   Clear
3:55 PM 57.2 °F - 35.6 °F 44% 30.26 in 10.0 mi East 4.6 mph - N/A   Clear
4:15 PM 55.4 °F - 35.6 °F 47% 30.26 in 10.0 mi ESE 4.6 mph - N/A   Clear
4:35 PM 53.6 °F - 37.4 °F 54% 30.26 in 10.0 mi ESE 5.8 mph - N/A   Clear
4:55 PM 50.0 °F - 37.4 °F 62% 30.26 in 10.0 mi Calm Calm - N/A   Clear
5:15 PM 50.0 °F - 37.4 °F 62% 30.26 in 10.0 mi SE 5.8 mph - N/A   Clear
5:35 PM 44.6 °F - 35.6 °F 71% 30.26 in 10.0 mi Calm Calm - N/A   Clear
5:55 PM 46.4 °F 45.2 °F 35.6 °F 66% 30.26 in 10.0 mi East 3.5 mph - N/A   Clear
6:15 PM 44.6 °F 42.2 °F 35.6 °F 71% 30.26 in 10.0 mi ESE 4.6 mph - N/A   Clear
6:35 PM 42.8 °F 41.1 °F 35.6 °F 76% 30.26 in 10.0 mi East 3.5 mph - N/A   Clear
6:55 PM 42.8 °F - 33.8 °F 70% 30.27 in 10.0 mi Calm Calm - N/A   Clear
7:15 PM 41.0 °F - 32.0 °F 70% 30.27 in 10.0 mi Calm Calm - N/A   Clear
7:35 PM 39.2 °F 37.0 °F 32.0 °F 75% 30.28 in 10.0 mi East 3.5 mph - N/A   Clear
7:55 PM 37.4 °F - 32.0 °F 81% 30.28 in 10.0 mi Calm Calm - N/A   Clear
8:15 PM 37.4 °F - 32.0 °F 81% 30.27 in 10.0 mi Calm Calm - N/A   Clear
8:35 PM 35.6 °F - 32.0 °F 87% 30.27 in 10.0 mi Calm Calm - N/A   Clear
8:55 PM 37.4 °F 32.1 °F 32.0 °F 81% 30.27 in 10.0 mi ESE 6.9 mph - N/A   Clear
9:15 PM 37.4 °F - 32.0 °F 81% 30.28 in 10.0 mi Calm Calm - N/A   Clear
9:35 PM 37.4 °F - 32.0 °F 81% 30.28 in 10.0 mi Calm Calm - N/A   Clear
9:55 PM 37.4 °F - 32.0 °F 81% 30.28 in 10.0 mi Calm Calm - N/A   Clear
10:15 PM 37.4 °F - 30.2 °F 75% 30.28 in 10.0 mi Calm Calm - N/A   Clear
10:35 PM 35.6 °F 32.8 °F 30.2 °F 81% 30.27 in 10.0 mi NNE 3.5 mph - N/A   Clear
10:55 PM 37.4 °F - 28.4 °F 70% 30.28 in 10.0 mi Calm Calm - N/A   Clear
11:15 PM 35.6 °F - 30.2 °F 81% 30.27 in 10.0 mi Calm Calm - N/A   Clear
11:35 PM 37.4 °F 33.8 °F 28.4 °F 70% 30.27 in 10.0 mi SE 4.6 mph - N/A   Clear
11:55 PM 35.6 °F - 28.4 °F 75% 30.27 in 10.0 mi Calm Calm - N/A   Clear